Loreto, Mexico

4:52 PM MDT on August 18, 2017 (GMT -0600)
Loreto International

Weather History for MMLT - September, 2012

Change the Weather History Date:

Monday, September 10, 2012

  Actual Average Record
Temperature  
Mean Temperature 88 °F -  
Max Temperature 97 °F 92 °F 97 °F (2012)
Min Temperature 80 °F 83 °F 76 °F (2013)
Cooling Degree Days 24    
Growing Degree Days 38 (Base 50)    
Moisture  
Dew Point 75 °F    
Average Humidity 61    
Maximum Humidity 75    
Minimum Humidity 39    
Precipitation  
Precipitation 0.00 in - - ()
Sea Level Pressure  
Sea Level Pressure 29.83 in    
Wind  
Wind Speed 2 mph ()    
Max Wind Speed 9 mph    
Max Gust Speed -    
Visibility 9.6 miles    
Events Rain , Thunderstorm    
Averages and records for this station are not official NWS values.
T = Trace of Precipitation, MM = Missing Value Source: Averaged Metar Reports

Daily Weather History Graph

Daily Weather History Graph

Search for Another Location

Airport or City:

Trip Planner

Search our weather history database for the weather conditions in past years. The results will help you decide how hot, cold, wet, or windy it might be!

Date:

Astronomy

Sep. 10, 2012 Rise Set
Actual Time 7:09 AM MDT 7:34 PM MDT
Civil Twilight 6:46 AM MDT 7:57 PM MDT
Nautical Twilight 6:19 AM MDT 8:24 PM MDT
Astronomical Twilight 5:51 AM MDT 8:52 PM MDT
Moon 1:58 AM MDT (9/10) 3:44 PM MDT (9/10)
Length of Visible Light 13h 11m
Length of Day
12h 25m
Waning Crescent, 29% of the Moon is Illuminated
Sep 10
Waning Crescent
Sep 15
New
Sep 22
First Quarter
Sep 29
Full
Oct 8
Last Quarter

Hourly Weather History & Observations

Time (MDT) Temp. Heat Index Dew Point Humidity Pressure Visibility Wind Dir Wind Speed Gust Speed Precip Events Conditions
2:45 AM 85 °F - 75 °F 64% 29.85 in 12 mi Calm Calm - -  
5:50 AM 82 °F - 75 °F 74% 29.82 in 12 mi Calm Calm - -   Clear
7:00 AM 84.2 °F 89.6 °F 71.6 °F 66% 29.82 in 8.0 mi Calm Calm - N/A   Scattered Clouds
7:52 AM 84.2 °F 89.6 °F 71.6 °F 66% 29.82 in 8.0 mi Calm Calm - N/A   Mostly Cloudy
8:46 AM 86.0 °F 93.4 °F 73.4 °F 66% 29.85 in 8.0 mi Calm Calm - N/A   Mostly Cloudy
8:50 AM 86 °F - 70 °F 50% 29.86 in 12 mi WNW 2.2 mph - -   Partly Cloudy
9:41 AM 87.8 °F 97.6 °F 75.2 °F 66% 29.87 in 8.0 mi Calm Calm - N/A   Mostly Cloudy
10:40 AM 93.2 °F 105.0 °F 75.2 °F 56% 29.87 in 8.0 mi Calm Calm - N/A   Scattered Clouds
11:45 AM 94 °F - 72 °F 39% 29.87 in 12 mi ENE 4.5 mph - -   Scattered Clouds
12:40 PM 91.4 °F 102.5 °F 75.2 °F 59% 29.87 in 8.0 mi Calm Calm - N/A   Partly Cloudy
1:46 PM 91.4 °F 111.0 °F 80.6 °F 71% 29.84 in 8.0 mi NE 9.2 mph - N/A   Partly Cloudy
2:40 PM 95 °F - 76 °F 45% 29.84 in 12 mi NE 4.5 mph - -   Scattered Clouds
2:45 PM 93.2 °F 107.2 °F 77.0 °F 59% 29.82 in 8.0 mi NE 9.2 mph - N/A   Scattered Clouds
3:45 PM 93.2 °F 113.6 °F 80.6 °F 67% 29.80 in 8.0 mi NE 9.2 mph - N/A Rain Light Rain
4:43 PM 93.2 °F 113.6 °F 80.6 °F 67% 29.78 in 8.0 mi NNE 9.2 mph - N/A   Scattered Clouds
5:45 PM 90 °F - 75 °F 53% 29.81 in 12 mi SSE 2.2 mph - - Thunderstorm Thunderstorm
5:46 PM 87.8 °F 102.5 °F 78.8 °F 75% 29.80 in 8.0 mi South 9.2 mph - N/A   Mostly Cloudy
6:00 PM 90 °F - 75 °F 53% 29.81 in 12 mi SSE 2.2 mph - -  
6:44 PM 84.2 °F 92.3 °F 75.2 °F 74% 29.82 in 8.0 mi SSW 9.2 mph - N/A   Mostly Cloudy
9:00 PM 85 °F - 69 °F 51% 29.83 in 12 mi WSW 2.2 mph - -   Overcast